KC4YLE Weather Reports


time (UTC)temp
C
wind
direction
speed
KPH
gust
KPH
rain 1hr
cm
rain 24hr
cm
rain mn
cm
humidity
%
barometer
mb
20260508044524 10 37 0.0 0.0 0.00 1.42 1.24 92 1012.9
20260508044033 10 37 0.0 0.0 0.00 1.42 1.24 92 1012.7
20260508043537 10 37 0.0 0.0 0.00 1.42 1.24 92 1012.7
20260508043042 10 37 0.0 0.0 0.00 1.42 1.24 92 1012.6
20260508042525 10 37 0.0 0.0 0.00 1.42 1.24 92 1012.6
20260508042029 10 37 0.0 0.0 0.00 1.42 1.24 92 1012.7
20260508041533 10 37 0.0 0.0 0.00 1.42 1.24 92 1012.6
20260508041037 11 37 0.0 0.0 0.00 1.42 1.24 92 1012.5
20260508040542 11 37 0.0 0.0 0.00 1.42 1.24 92 1012.5
20260508040027 11 37 0.0 0.0 0.00 1.55 1.24 92 1012.6
20260508035531 11 37 0.0 0.0 0.00 1.55 1.24 92 1012.5
20260508035035 11 37 0.0 0.0 0.00 1.55 1.24 92 1012.5
20260508034542 11 37 0.0 0.0 0.00 1.55 1.24 92 1012.4
20260508034025 11 37 0.0 0.0 0.00 1.55 1.24 92 1012.4
20260508033530 11 37 0.0 0.0 0.00 1.55 1.24 92 1012.3
20260508033034 11 37 0.0 0.0 0.00 1.55 1.24 92 1012.4
20260508032538 11 37 0.0 0.0 0.00 1.55 1.24 92 1012.3
20260508032042 11 37 0.0 0.0 0.00 1.55 1.24 92 1012.3
20260508031547 12 37 0.0 0.0 0.00 1.55 1.24 92 1012.4
20260508031030 12 37 0.0 0.0 0.00 1.55 1.24 92 1012.4
20260508030533 12 37 0.0 0.0 0.00 1.55 1.24 92 1012.4
20260508030037 12 37 0.0 0.0 0.00 1.60 1.24 92 1012.5
20260508025540 12 37 0.0 0.0 0.00 1.60 1.24 92 1012.4
20260508025027 12 37 0.0 0.0 0.00 1.60 1.24 92 1012.4
20260508024551 12 37 0.0 0.0 0.00 1.60 1.24 92 1012.2
20260508024035 12 37 0.0 0.0 0.00 1.60 1.24 92 1012.0
20260508023539 12 37 0.0 0.0 0.00 1.60 1.24 92 1011.9
20260508023043 12 37 0.0 0.0 0.00 1.60 1.24 92 1011.9
20260508022548 12 37 0.0 0.0 0.00 1.60 1.24 92 1012.0
20260508022031 12 37 0.0 0.0 0.00 1.60 1.24 92 1012.0
20260508021535 12 37 0.0 0.0 0.00 1.60 1.24 92 1011.9
20260508021038 12 37 0.0 0.0 0.00 1.60 1.24 92 1011.8
20260508020603 12 37 0.0 0.0 0.00 1.60 1.24 92 1011.9
20260508020027 12 37 0.0 0.0 0.00 1.60 1.24 92 1011.8
20260508015532 12 37 0.0 0.0 0.00 1.60 1.24 92 1011.6
20260508015036 12 37 0.0 0.0 0.00 1.60 1.24 92 1011.4
20260508014601 12 37 0.0 0.0 0.00 1.60 1.24 92 1011.3
20260508014028 12 37 0.0 0.0 0.00 1.60 1.24 92 1011.2
20260508013532 12 37 0.0 0.0 0.00 1.60 1.24 92 1011.0
20260508013037 12 37 0.0 0.0 0.00 1.60 1.24 92 1010.9
20260508012602 12 37 0.0 0.0 0.00 1.60 1.24 92 1010.9
20260508012024 12 37 0.0 0.0 0.00 1.60 1.24 92 1010.7
20260508011530 12 37 0.0 0.0 0.00 1.60 1.24 92 1010.9
20260508011033 12 37 0.0 0.0 0.00 1.60 1.24 92 1010.8
20260508010538 12 37 0.0 0.0 0.00 1.60 1.24 92 1010.8
20260508010042 12 37 0.0 0.0 0.00 1.60 1.24 92 1010.8
20260508005527 12 37 0.0 0.0 0.00 1.60 1.24 92 1010.9
20260508005032 12 37 0.0 0.0 0.00 1.60 1.24 92 1010.9
20260508004537 12 37 0.0 0.0 0.00 1.60 1.24 92 1011.0
20260508004023 12 37 0.0 1.6 0.00 1.60 1.24 92 1011.0
20260508003528 12 37 0.0 1.6 0.00 1.60 1.24 92 1011.0
20260508003032 12 37 0.0 0.0 0.00 1.60 1.24 92 1010.9
20260508002537 12 37 0.0 0.0 0.00 1.60 1.24 92 1010.8
20260508002041 12 37 0.0 0.0 0.00 1.60 1.24 92 1010.8
20260508001526 12 37 0.0 0.0 0.00 1.60 1.24 92 1010.6
20260508001039 12 37 0.0 0.0 0.00 1.60 1.24 92 1010.5
20260508000543 13 37 0.0 0.0 0.00 1.60 1.24 92 1010.4
20260508000026 13 37 0.0 3.2 0.00 1.60 1.24 92 1010.2
20260507235531 13 37 0.0 3.2 0.00 1.60 1.24 92 1010.0
20260507235035 13 348 0.0 0.0 0.00 1.60 1.24 92 1010.1
20260507234523 13 348 0.0 0.0 0.00 1.60 1.24 92 1010.2
20260507234027 13 348 0.0 0.0 0.00 1.60 1.24 92 1010.0
20260507233533 13 348 0.0 0.0 0.00 1.60 1.24 92 1009.8
20260507233036 13 348 0.0 0.0 0.00 1.60 1.24 92 1009.7
20260507232540 13 348 0.0 0.0 0.00 1.60 1.24 92 1009.7
20260507232025 13 348 0.0 0.0 0.00 1.60 1.24 92 1009.7
20260507231549 13 348 0.0 0.0 0.00 1.60 1.24 92 1009.7
20260507231033 13 348 0.0 8.0 0.00 1.60 1.24 92 1009.7
20260507230537 13 348 1.6 8.0 0.00 1.60 1.24 92 1009.6
20260507230035 13 18 0.0 0.0 0.00 1.60 1.24 92 1009.6
20260507225539 13 18 0.0 0.0 0.00 1.60 1.24 92 1009.6
20260507225027 13 18 0.0 1.6 0.00 1.60 1.24 92 1009.7
20260507224532 13 18 0.0 3.2 0.00 1.60 1.24 92 1009.6
20260507224037 13 18 0.0 4.8 0.00 1.60 1.24 92 1009.5
20260507223541 13 18 1.6 4.8 0.00 1.60 1.24 92 1009.4
20260507223025 13 355 0.0 6.4 0.00 1.60 1.24 92 1009.4
20260507222529 13 355 0.0 6.4 0.00 1.60 1.24 92 1009.2
20260507222031 13 44 0.0 6.4 0.00 1.60 1.24 92 1009.3
20260507221536 13 82 1.6 4.8 0.00 1.60 1.24 92 1009.3
20260507221041 13 51 0.0 3.2 0.00 1.60 1.24 92 1009.2
20260507220546 13 51 0.0 1.6 0.00 1.60 1.24 92 1009.2
20260507220028 13 51 0.0 8.0 0.00 1.60 1.24 92 1009.1
20260507215533 13 51 1.6 8.0 0.00 1.60 1.24 92 1009.2
20260507215041 13 204 0.0 6.4 0.00 1.60 1.24 92 1009.2
20260507214525 13 38 0.0 6.4 0.00 1.60 1.24 92 1009.4
20260507214030 13 32 0.0 3.2 0.00 1.60 1.24 92 1009.5
20260507213534 13 28 0.0 3.2 0.00 1.60 1.24 92 1009.5
20260507213039 13 28 0.0 0.0 0.00 1.60 1.24 92 1009.6
20260507212543 13 28 0.0 3.2 0.00 1.60 1.24 92 1009.6
20260507212026 13 28 1.6 3.2 0.00 1.60 1.24 92 1009.6
20260507211531 13 28 0.0 6.4 0.00 1.60 1.24 92 1009.4
20260507211036 13 28 0.0 6.4 0.00 1.60 1.24 92 1009.2
20260507210540 13 59 0.0 4.8 0.00 1.60 1.24 92 1009.1
20260507210028 13 59 0.0 4.8 0.00 1.60 1.24 92 1009.6
20260507205533 13 59 0.0 3.2 0.00 1.60 1.24 92 1009.5
20260507205037 13 59 0.0 3.2 0.00 1.60 1.24 92 1009.4
20260507204602 13 59 0.0 3.2 0.00 1.60 1.24 92 1009.2
20260507204026 13 59 0.0 4.8 0.00 1.60 1.24 92 1009.0
20260507203530 13 59 0.0 9.7 0.00 1.60 1.24 92 1009.2
20260507203055 13 49 1.6 12.9 0.00 1.60 1.24 92 1009.1
20260507202559 13 42 0.0 12.9 0.00 1.60 1.24 92 1008.9
20260507202043 13 92 0.0 6.4 0.00 1.60 1.24 92 1009.1
20260507201526 13 20 1.6 8.0 0.00 1.60 1.24 92 1009.1
20260507201031 13 17 1.6 9.7 0.00 1.60 1.24 92 1009.0
20260507200536 13 29 0.0 9.7 0.00 1.60 1.24 92 1009.0
20260507200039 13 31 1.6 12.9 0.03 1.60 1.24 92 1009.0
20260507195527 13 30 1.6 12.9 0.03 1.60 1.24 92 1009.1
20260507195031 13 54 1.6 8.0 0.03 1.60 1.24 92 1009.0
20260507194537 13 131 0.0 6.4 0.03 1.60 1.24 92 1009.0
20260507194041 13 46 0.0 11.3 0.03 1.60 1.24 92 1009.2
20260507193525 13 311 3.2 11.3 0.03 1.60 1.24 92 1009.2
20260507193029 13 26 1.6 11.3 0.03 1.60 1.24 92 1009.2
20260507192534 13 33 0.0 11.3 0.03 1.60 1.24 92 1009.1
20260507192058 13 59 0.0 8.0 0.03 1.60 1.24 92 1009.2
20260507191541 13 13 1.6 11.3 0.03 1.60 1.24 92 1009.4
20260507191026 13 37 0.0 11.3 0.05 1.60 1.24 92 1009.4
20260507190531 13 186 0.0 4.8 0.08 1.60 1.24 92 1009.1
20260507190036 13 94 0.0 4.8 0.08 1.57 1.22 92 1009.1
20260507185524 13 123 0.0 9.7 0.08 1.57 1.22 92 1009.2
20260507185048 13 123 1.6 9.7 0.10 1.57 1.22 92 1009.4
20260507184550 13 29 0.0 6.4 0.10 1.57 1.22 92 1009.5
20260507184055 13 29 0.0 6.4 0.13 1.57 1.22 92 1009.2
20260507183537 13 38 0.0 9.7 0.13 1.57 1.22 92 1009.2
20260507183042 13 116 1.6 9.7 0.13 1.57 1.22 92 1009.3
20260507182546 13 71 1.6 6.4 0.13 1.57 1.22 92 1009.2
20260507182030 13 40 0.0 6.4 0.13 1.57 1.22 92 1009.3
20260507181534 13 111 1.6 4.8 0.13 1.57 1.22 92 1009.1
20260507181038 13 42 0.0 1.6 0.10 1.55 1.19 92 1009.1
20260507180542 13 42 0.0 6.4 0.08 1.52 1.17 92 1009.1
20260507180026 13 42 0.0 6.4 0.05 1.50 1.14 92 1009.4
20260507175531 13 53 0.0 9.7 0.05 1.50 1.14 91 1009.4
20260507175035 13 32 1.6 9.7 0.03 1.47 1.12 91 1009.2
20260507174524 13 50 1.6 6.4 0.03 1.47 1.12 91 1009.2
20260507174028 13 82 0.0 4.8 0.00 1.45 1.09 91 1009.2
20260507173532 13 82 0.0 8.0 0.00 1.45 1.09 91 1009.3
20260507173037 13 93 1.6 8.0 0.00 1.45 1.09 91 1009.4
20260507172541 13 41 1.6 8.0 0.00 1.45 1.09 92 1009.5
20260507172026 13 69 3.2 16.1 0.00 1.45 1.09 91 1009.2
20260507171549 13 28 4.8 16.1 0.00 1.45 1.09 91 1008.9
20260507171032 13 105 3.2 12.9 0.00 1.45 1.09 91 1008.8
20260507170536 13 26 3.2 12.9 0.00 1.45 1.09 91 1008.7
20260507170041 14 67 6.4 12.9 0.00 1.45 1.09 91 1008.5
20260507165526 14 63 0.0 9.7 0.00 1.45 1.09 92 1008.5
20260507165049 14 63 3.2 9.7 0.00 1.45 1.09 91 1008.7
20260507164538 14 31 1.6 11.3 0.03 1.45 1.09 91 1008.7
20260507164102 14 82 4.8 11.3 0.03 1.45 1.09 91 1008.8
20260507163525 15 29 1.6 24.1 0.03 1.45 1.09 91 1009.2
20260507163028 15 30 6.4 24.1 0.08 1.45 1.09 91 1008.7
20260507162533 16 50 3.2 20.9 0.10 1.45 1.09 92 1008.5
20260507162038 16 43 3.2 11.3 0.10 1.45 1.09 92 1008.9
20260507161542 17 79 4.8 11.3 0.10 1.45 1.09 93 1009.1
20260507161025 17 26 0.0 1.6 0.13 1.45 1.09 94 1008.7
20260507160530 17 26 0.0 4.8 0.13 1.45 1.09 94 1008.9
20260507160054 17 26 0.0 0.0 0.13 1.45 1.09 94 1008.6
20260507155536 17 26 0.0 1.6 0.15 1.45 1.09 93 1009.0
20260507155100 17 26 0.0 6.4 0.15 1.45 1.09 93 1009.1
20260507154543 17 26 0.0 11.3 0.13 1.42 1.07 93 1009.1
20260507154046 18 38 0.0 14.5 0.15 1.42 1.07 93 1008.9
20260507153534 18 32 3.2 14.5 0.18 1.42 1.07 93 1009.3
20260507153038 18 146 0.0 3.2 0.13 1.37 1.02 94 1009.6
20260507152523 18 142 0.0 0.0 0.10 1.35 0.99 94 1009.1
20260507152047 18 142 0.0 0.0 0.13 1.35 0.99 94 1008.7
20260507151529 18 142 0.0 0.0 0.13 1.35 0.99 94 1008.6
20260507151034 18 142 0.0 0.0 0.10 1.32 0.97 94 1008.5
20260507150536 18 142 0.0 0.0 0.13 1.32 0.97 94 1008.8
20260507150041 18 142 0.0 0.0 0.13 1.32 0.97 94 1009.0
20260507145526 18 142 0.0 0.0 0.10 1.30 0.94 94 1009.0
20260507145030 18 142 0.0 0.0 0.13 1.30 0.94 94 1008.8
20260507144534 18 142 0.0 0.0 0.15 1.30 0.94 94 1008.9
20260507144037 18 142 0.0 0.0 0.13 1.27 0.91 94 1008.8
20260507143525 18 142 0.0 0.0 0.13 1.24 0.89 94 1008.6
20260507143029 18 142 0.0 0.0 0.15 1.24 0.89 94 1008.7
20260507142533 18 142 0.0 0.0 0.18 1.24 0.89 94 1008.6
20260507142038 18 142 0.0 0.0 0.18 1.22 0.86 94 1008.5
20260507141602 18 142 0.0 0.0 0.20 1.22 0.86 94 1008.5
20260507141025 18 142 0.0 0.0 0.25 1.22 0.86 94 1008.3
20260507140529 18 142 0.0 0.0 0.28 1.19 0.84 94 1008.4
20260507140052 18 142 0.0 1.6 0.30 1.19 0.84 94 1008.5
20260507135534 18 142 0.0 0.0 0.36 1.19 0.84 94 1008.6
20260507135038 18 142 0.0 0.0 0.36 1.17 0.81 94 1008.8
20260507134602 18 142 0.0 0.0 0.33 1.14 0.79 94 1009.1
20260507134025 18 142 0.0 0.0 0.36 1.14 0.79 94 1009.2
20260507133529 18 142 0.0 0.0 0.36 1.12 0.76 94 1009.3
20260507133052 18 142 0.0 0.0 0.33 1.09 0.74 93 1009.4
20260507132539 18 142 0.0 0.0 0.33 1.07 0.71 93 1009.6
20260507132023 18 142 0.0 3.2 0.30 1.04 0.69 93 1009.7
20260507131547 18 142 0.0 3.2 0.28 1.02 0.66 93 1009.8
20260507131029 18 142 0.0 0.0 0.23 0.97 0.61 93 1009.8
20260507130534 18 142 0.0 0.0 0.18 0.91 0.56 93 1009.7
20260507130037 18 142 0.0 0.0 0.13 0.86 0.51 93 1009.5
20260507125541 18 142 0.0 0.0 0.10 0.84 0.48 93 1009.5
20260507125025 18 142 0.0 0.0 0.08 0.81 0.46 93 1009.4
20260507124530 18 142 0.0 0.0 0.08 0.81 0.46 93 1009.2
20260507124054 18 142 0.0 0.0 0.05 0.79 0.43 93 1009.1
20260507123537 18 142 0.0 0.0 0.03 0.76 0.41 93 1009.3
20260507123041 18 142 0.0 0.0 0.03 0.76 0.41 93 1009.3
20260507122528 18 142 0.0 0.0 0.00 0.74 0.38 93 1009.3
20260507122032 18 142 0.0 0.0 0.00 0.74 0.38 93 1009.2
20260507121536 18 142 0.0 0.0 0.00 0.74 0.38 93 1009.2
20260507121040 18 142 0.0 0.0 0.03 0.74 0.38 93 1009.3
20260507120523 18 142 0.0 0.0 0.03 0.74 0.38 93 1009.2
20260507120027 18 142 0.0 0.0 0.03 0.74 0.38 93 1009.2
20260507115532 18 142 0.0 0.0 0.03 0.74 0.38 93 1009.1
20260507115056 18 142 0.0 0.0 0.03 0.74 0.38 93 1009.1
20260507114539 17 142 0.0 0.0 0.03 0.74 0.38 93 1009.2
20260507114023 17 142 0.0 0.0 0.03 0.74 0.38 93 1009.1
20260507113528 17 142 0.0 0.0 0.03 0.74 0.38 93 1009.0
20260507113031 17 142 0.0 0.0 0.03 0.74 0.38 93 1009.1
20260507112555 17 142 0.0 0.0 0.03 0.74 0.38 93 1009.4
20260507112042 17 142 0.0 0.0 0.03 0.74 0.38 93 1009.5
20260507111525 17 142 0.0 0.0 0.03 0.74 0.38 93 1009.4
20260507111028 17 142 0.0 0.0 0.00 0.71 0.36 93 1009.5
20260507110534 17 142 0.0 0.0 0.00 0.71 0.36 93 1009.5
20260507110057 17 142 0.0 0.0 0.03 0.71 0.36 93 1009.2
20260507105542 17 142 0.0 0.0 0.03 0.71 0.36 93 1009.2
20260507105045 17 142 0.0 0.0 0.03 0.71 0.36 93 1009.2
20260507104528 17 142 0.0 0.0 0.03 0.71 0.36 93 1009.3
20260507104033 17 142 0.0 0.0 0.03 0.71 0.36 93 1009.4
20260507103536 17 142 0.0 0.0 0.05 0.71 0.36 93 1009.3
20260507103041 17 142 0.0 0.0 0.05 0.71 0.36 93 1009.1
20260507102524 17 142 0.0 1.6 0.05 0.71 0.36 93 1009.1
20260507102032 17 142 0.0 0.0 0.05 0.71 0.36 93 1008.9
20260507101537 17 142 0.0 0.0 0.05 0.71 0.36 93 1008.9
20260507101041 17 142 0.0 0.0 0.05 0.71 0.36 93 1009.2
20260507100525 17 142 0.0 0.0 0.05 0.71 0.36 93 1009.3
20260507100050 17 142 0.0 0.0 0.03 0.69 0.33 93 1009.2
20260507095533 17 142 0.0 0.0 0.03 0.69 0.33 93 1009.0
20260507095036 17 142 0.0 0.0 0.03 0.69 0.33 93 1009.0
20260507094540 17 142 0.0 0.0 0.03 0.69 0.33 93 1009.1
20260507094024 17 142 0.0 0.0 0.03 0.69 0.33 93 1009.3
20260507093528 17 142 0.0 1.6 0.00 0.66 0.30 93 1009.4
20260507093033 17 142 0.0 1.6 0.00 0.66 0.30 93 1009.1
20260507092537 17 142 0.0 0.0 0.03 0.66 0.30 92 1009.0
20260507092024 17 142 0.0 0.0 0.03 0.66 0.30 92 1009.0
20260507091549 17 142 0.0 0.0 0.05 0.66 0.30 92 1009.1
20260507091032 17 142 0.0 0.0 0.05 0.66 0.30 92 1008.9
20260507090556 17 142 0.0 0.0 0.05 0.66 0.30 92 1008.9
20260507090040 17 142 0.0 0.0 0.05 0.66 0.30 92 1008.9
20260507085523 17 142 0.0 0.0 0.05 0.66 0.30 92 1008.9
20260507085048 17 142 0.0 0.0 0.05 0.66 0.30 92 1008.9
20260507084531 17 142 0.0 0.0 0.05 0.66 0.30 92 1009.1
20260507084034 17 142 0.0 1.6 0.08 0.66 0.30 92 1009.3
20260507083537 17 142 0.0 3.2 0.10 0.66 0.30 92 1009.4
20260507083040 17 142 0.0 3.2 0.10 0.66 0.30 92 1009.4
20260507082523 17 142 0.0 0.0 0.08 0.64 0.28 92 1009.5
20260507082027 17 142 0.0 0.0 0.08 0.64 0.28 92 1009.6
20260507081535 17 142 0.0 0.0 0.05 0.61 0.25 92 1009.7
20260507081039 17 142 0.0 0.0 0.05 0.61 0.25 92 1009.5
20260507080523 17 142 0.0 0.0 0.05 0.61 0.25 92 1009.2
20260507080027 17 142 0.0 0.0 0.05 0.61 0.25 92 1009.4
20260507075530 17 142 0.0 0.0 0.05 0.61 0.25 92 1009.2
20260507075034 17 142 0.0 0.0 0.05 0.61 0.25 92 1009.4
20260507074539 17 142 0.0 3.2 0.05 0.61 0.25 92 1009.6
20260507074023 17 142 0.0 3.2 0.03 0.58 0.23 92 1009.6
20260507073527 18 142 0.0 0.0 0.00 0.56 0.20 92 1009.6
20260507073031 18 142 0.0 1.6 0.00 0.56 0.20 92 1009.7
20260507072555 18 142 0.0 1.6 0.00 0.56 0.20 92 1009.6
20260507072037 18 142 0.0 0.0 0.00 0.56 0.20 92 1009.6
20260507071525 18 142 0.0 0.0 0.05 0.56 0.20 92 1009.4
20260507071049 18 142 0.0 1.6 0.10 0.56 0.20 92 1009.6
20260507070532 18 142 0.0 0.0 0.13 0.56 0.20 92 1009.7
20260507070055 18 142 0.0 3.2 0.20 0.56 0.20 92 1009.7
20260507065558 18 142 0.0 3.2 0.20 0.56 0.20 92 1009.6
20260507065041 18 142 0.0 1.6 0.23 0.56 0.20 92 1010.0
20260507064544 18 142 0.0 3.2 0.25 0.56 0.20 92 1010.1
20260507064027 18 142 0.0 3.2 0.30 0.56 0.20 92 1009.8
20260507063531 18 142 0.0 4.8 0.30 0.56 0.20 92 1010.3
20260507063034 18 252 0.0 4.8 0.30 0.56 0.20 92 1010.8
20260507062538 18 319 0.0 1.6 0.30 0.56 0.20 92 1010.9
20260507062102 18 319 0.0 6.4 0.30 0.56 0.20 92 1011.0
20260507061524 18 321 1.6 6.4 0.25 0.51 0.15 92 1011.1
20260507061028 18 288 0.0 0.0 0.20 0.46 0.10 91 1011.0
20260507060532 18 288 0.0 1.6 0.18 0.43 0.08 91 1010.8
20260507060041 18 288 0.0 1.6 0.10 0.36 0.36 91 1010.6
20260507055524 18 288 0.0 1.6 0.10 0.36 0.36 91 1010.6
20260507055028 18 288 0.0 1.6 0.08 0.33 0.33 91 1010.9
20260507054533 18 288 0.0 0.0 0.05 0.30 0.30 91 1010.9
20260507054037 18 288 0.0 0.0 0.00 0.25 0.25 91 1010.9
20260507053541 18 288 0.0 0.0 0.00 0.25 0.25 91 1010.9
20260507053025 18 288 0.0 0.0 0.03 0.25 0.25 91 1010.9
20260507052528 18 288 0.0 0.0 0.03 0.25 0.25 91 1010.9
20260507052053 18 288 0.0 0.0 0.03 0.25 0.25 91 1010.9
20260507051536 18 288 0.0 0.0 0.03 0.25 0.25 91 1011.0
20260507051040 18 288 0.0 0.0 0.03 0.25 0.25 91 1010.8
20260507050528 18 288 0.0 0.0 0.05 0.25 0.25 91 1011.3
20260507050033 18 288 0.0 0.0 0.08 0.25 0.25 91 1011.5
20260507045537 18 288 0.0 0.0 0.10 0.25 0.25 91 1011.2
20260507045103 18 288 0.0 0.0 0.13 0.25 0.25 91 1011.0